H1 CPF 2 NER 2024 10 5 9 279 01 glonass133 H2 1403201 9133 40001 2024 10 5 0 0 0 2024 10 8 23 45 0 900 1 1 0 0 0 1 H9 10 0 60588 0.00000 0 -15327799.321 621190.809 -20362233.000 10 0 60588 900.00000 0 -13318989.565 -1034011.262 -21716250.977 10 0 60588 1800.00000 0 -11341885.071 -2935498.541 -22647947.032 10 0 60588 2700.00000 0 -9456494.833 -5046331.119 -23139342.158 10 0 60588 3600.00000 0 -7715863.656 -7318989.954 -23181029.828 10 0 60588 4500.00000 0 -6163994.332 -9697152.840 -22772347.340 10 0 60588 5400.00000 0 -4834167.551 -12117848.394 -21921377.207 10 0 60588 6300.00000 0 -3747728.091 -14513898.466 -20644779.499 10 0 60588 7200.00000 0 -2913386.229 -16816547.489 -18967459.084 10 0 60588 8100.00000 0 -2327061.569 -18958169.742 -16922074.816 10 0 60588 9000.00000 0 -1972273.850 -20874942.436 -14548400.439 10 0 60588 9900.00000 0 -1821062.530 -22509373.970 -11892549.792 10 0 60588 10800.00000 0 -1835394.959 -23812582.854 -9006081.267 10 0 60588 11700.00000 0 -1969002.671 -24746233.150 -5944998.736 10 0 60588 12600.00000 0 -2169567.618 -25284046.516 -2768668.121 10 0 60588 13500.00000 0 -2381165.628 -25412828.530 461329.663 10 0 60588 14400.00000 0 -2546863.771 -25132967.131 3682387.449 10 0 60588 15300.00000 0 -2611361.941 -24458382.890 6832079.491 10 0 60588 16200.00000 0 -2523567.241 -23415933.588 9849364.990 10 0 60588 17100.00000 0 -2238992.562 -22044298.157 12675764.579 10 0 60588 18000.00000 0 -1721878.162 -20392386.628 15256487.359 10 0 60588 18900.00000 0 -946946.589 -18517342.241 17541487.175 10 0 60588 19800.00000 0 99283.476 -16482218.708 19486428.195 10 0 60588 20700.00000 0 1417680.564 -14353428.942 21053541.624 10 0 60588 21600.00000 0 2996216.476 -12198070.924 22212357.395 10 0 60588 22500.00000 0 4810228.577 -10081241.338 22940297.052 10 0 60588 23400.00000 0 6823219.204 -8063448.178 23223116.432 10 0 60588 24300.00000 0 8988160.841 -6198229.377 23055189.506 10 0 60588 25200.00000 0 11249254.676 -4530076.093 22439627.458 10 0 60588 26100.00000 0 13544071.142 -3092746.853 21388230.024 10 0 60588 27000.00000 0 15805984.911 -1908042.649 19921269.117 10 0 60588 27900.00000 0 17966804.130 -985094.049 18067107.802 10 0 60588 28800.00000 0 19959485.058 -320190.212 15861660.851 10 0 60588 29700.00000 0 21720819.110 102843.008 13347706.215 10 0 60588 30600.00000 0 23193979.841 311731.742 10574059.815 10 0 60588 31500.00000 0 24330822.687 344348.092 7594629.044 10 0 60588 32400.00000 0 25093840.196 246869.055 4467363.105 10 0 60588 33300.00000 0 25457689.679 71578.855 1253120.711 10 0 60588 34200.00000 0 25410228.030 -125591.468 -1985522.215 10 0 60588 35100.00000 0 24953009.344 -287681.746 -5185500.724 10 0 60588 36000.00000 0 24101223.805 -359365.316 -8284499.864 10 0 60588 36900.00000 0 22883080.169 -289542.168 -11222179.047 10 0 60588 37800.00000 0 21338658.017 -33751.148 -13941356.697 10 0 60588 38700.00000 0 19518278.541 443702.431 -16389131.015 10 0 60588 39600.00000 0 17480463.123 1167995.070 -18517914.177 10 0 60588 40500.00000 0 15289566.309 2152484.317 -20286359.436 10 0 60588 41400.00000 0 13013183.284 3397914.566 -21660163.010 10 0 60588 42300.00000 0 10719441.130 4892163.377 -22612725.495 10 0 60588 43200.00000 0 8474287.508 6610539.204 -23125660.571 10 0 60588 44100.00000 0 6338889.972 8516618.169 -23189142.031 10 0 60588 45000.00000 0 4367253.955 10563584.811 -22802083.339 10 0 60588 45900.00000 0 2604157.773 12696020.733 -21972147.275 10 0 60588 46800.00000 0 1083489.314 14852066.488 -20715586.347 10 0 60588 47700.00000 0 -172947.978 16965866.614 -19056917.863 10 0 60588 48600.00000 0 -1156111.999 18970196.063 -17028440.480 10 0 60588 49500.00000 0 -1869855.630 20799158.950 -14669601.946 10 0 60588 50400.00000 0 -2330513.553 22390847.498 -12026230.449 10 0 60588 51300.00000 0 -2565961.489 23689850.893 -9149644.449 10 0 60588 52200.00000 0 -2614188.956 24649509.951 -6095658.098 10 0 60588 53100.00000 0 -2521446.804 25233824.066 -2923501.349 10 0 60588 54000.00000 0 -2340048.452 25418931.379 305324.569 10 0 60588 54900.00000 0 -2125918.038 25194100.781 3528234.432 10 0 60588 55800.00000 0 -1935989.173 24562194.662 6682766.317 10 0 60588 56700.00000 0 -1825564.109 23539583.263 9707785.844 10 0 60588 57600.00000 0 -1845744.697 22155514.217 12544664.461 10 0 60588 58500.00000 0 -2041043.467 20450963.470 15138409.319 10 0 60588 59400.00000 0 -2447275.560 18477015.133 17438723.392 10 0 60588 60300.00000 0 -3089820.598 16292837.302 19400975.817 10 0 60588 61200.00000 0 -3982328.136 13963337.477 20987064.185 10 0 60588 62100.00000 0 -5125922.021 11556594.384 22166152.554 10 0 60588 63000.00000 0 -6508938.288 9141172.133 22915271.254 10 0 60588 63900.00000 0 -8107209.160 6783427.557 23219766.978 10 0 60588 64800.00000 0 -9884883.094 4544921.827 23073594.386 10 0 60588 65700.00000 0 -11795748.561 2480043.243 22479443.172 10 0 60588 66600.00000 0 -13785008.183 633939.569 21448697.477 10 0 60588 67500.00000 0 -15791430.905 -959154.433 20001227.521 10 0 60588 68400.00000 0 -17749793.820 -2277124.748 18165016.389 10 0 60588 69300.00000 0 -19593512.610 -3310670.818 15975628.053 10 0 60588 70200.00000 0 -21257351.202 -4063454.297 13475525.809 10 0 60588 71100.00000 0 -22680097.243 -4551697.683 10713253.392 10 0 60588 72000.00000 0 -23807090.801 -4803249.849 7742494.023 10 0 60588 72900.00000 0 -24592499.359 -4856158.212 4621025.373 10 0 60588 73800.00000 0 -25001242.407 -4756808.348 1409590.851 10 0 60588 74700.00000 0 -25010483.477 -4557710.558 -1829290.229 10 0 60588 75600.00000 0 -24610625.636 -4315028.193 -5032549.578 10 0 60588 76500.00000 0 -23805767.576 -4085953.783 -8137808.931 10 0 60588 77400.00000 0 -22613600.379 -3926045.662 -11084605.643 10 0 60588 78300.00000 0 -21064749.069 -3886639.510 -13815579.770 10 0 60588 79200.00000 0 -19201586.659 -4012445.913 -16277598.439 10 0 60588 80100.00000 0 -17076571.000 -4339436.945 -18422794.713 10 0 60588 81000.00000 0 -14750174.816 -4893112.160 -20209500.320 10 0 60588 81900.00000 0 -12288496.380 -5687217.973 -21603054.018 10 0 60588 82800.00000 0 -9760651.482 -6722974.858 -22576470.168 10 0 60588 83700.00000 0 -7236056.064 -7988845.097 -23110955.148 10 0 60588 84600.00000 0 -4781712.991 -9460850.836 -23196262.459 10 0 60588 85500.00000 0 -2459615.759 -11103428.964 -22830880.585 10 0 60589 0.00000 0 -324376.692 -12870786.675 -22022051.033 10 0 60589 900.00000 0 1578823.982 -14708701.803 -20785616.629 10 0 60589 1800.00000 0 3215881.513 -16556690.205 -19145704.912 10 0 60589 2700.00000 0 4564939.732 -18350452.788 -17134251.911 10 0 60589 3600.00000 0 5617044.141 -20024497.847 -14790376.834 10 0 60589 4500.00000 0 6376251.022 -21514830.301 -12159619.630 10 0 60589 5400.00000 0 6859189.866 -22761595.751 -9293056.248 10 0 60589 6300.00000 0 7094099.352 -23711569.259 -6246308.592 10 0 60589 7200.00000 0 7119378.859 -24320385.222 -3078468.208 10 0 60589 8100.00000 0 6981717.675 -24554415.505 149045.699 10 0 60589 9000.00000 0 6733881.480 -24392217.567 3373672.059 10 0 60589 9900.00000 0 6432249.893 -23825492.206 6532914.843 10 0 60589 10800.00000 0 6134209.124 -22859510.903 9565548.023 10 0 60589 11700.00000 0 5895509.702 -21512994.730 12412795.634 10 0 60589 12600.00000 0 5767700.619 -19817449.576 15019464.496 10 0 60589 13500.00000 0 5795747.937 -17815984.860 17335008.130 10 0 60589 14400.00000 0 6015938.199 -15561664.275 19314501.856 10 0 60589 15300.00000 0 6454155.098 -13115456.369 20919510.628 10 0 60589 16200.00000 0 7124602.366 -10543869.252 22118833.357 10 0 60589 17100.00000 0 8029027.370 -7916366.640 22889109.615 10 0 60589 18000.00000 0 9156479.163 -5302671.574 23215277.152 10 0 60589 18900.00000 0 10483612.615 -2770068.725 23090871.276 10 0 60589 19800.00000 0 11975527.592 -380816.417 22518159.929 10 0 60589 20700.00000 0 13587109.841 1810224.823 21508111.202 10 0 60589 21600.00000 0 15264819.221 3757649.159 20080193.001 10 0 60589 22500.00000 0 16948851.990 5427162.516 18262007.659 10 0 60589 23400.00000 0 18575587.815 6796770.926 16088767.416 10 0 60589 24300.00000 0 20080219.734 7857450.600 13602619.812 10 0 60589 25200.00000 0 21399457.061 8613271.779 10851835.107 10 0 60589 26100.00000 0 22474187.492 9080971.262 7889870.837 10 0 60589 27000.00000 0 23251985.806 9288991.898 4774331.388 10 0 60589 27900.00000 0 23689362.569 9276030.008 1565842.876 10 0 60589 28800.00000 0 23753656.828 9089152.792 -1673134.207 10 0 60589 29700.00000 0 23424491.721 8781566.365 -4879530.611 10 0 60589 30600.00000 0 22694730.357 8410130.131 -7990907.235 10 0 60589 31500.00000 0 21570890.677 8032724.181 -10946681.868 10 0 60589 32400.00000 0 20073001.066 7705582.745 -13689318.637 10 0 60589 33300.00000 0 18233902.454 7480708.066 -16165455.906 10 0 60589 34200.00000 0 16098026.226 7403475.445 -18326949.784 10 0 60589 35100.00000 0 13719699.505 7510531.804 -20131812.469 10 0 60589 36000.00000 0 11161049.269 7828077.244 -21545027.080 10 0 60589 36900.00000 0 8489593.488 8370602.524 -22539223.383 10 0 60589 37800.00000 0 5775620.280 9140135.720 -23095201.903 10 0 60589 38700.00000 0 3089464.536 10126029.646 -23202297.073 10 0 60589 39600.00000 0 498795.319 11305298.617 -22858573.317 10 0 60589 40500.00000 0 -1933973.657 12643490.038 -22070851.282 10 0 60589 41400.00000 0 -4154043.732 14096053.901 -20854564.591 10 0 60589 42300.00000 0 -6116264.394 15610152.465 -19233450.684 10 0 60589 43200.00000 0 -7786756.883 17126834.178 -17239082.296 10 0 60589 44100.00000 0 -9144062.637 18583480.773 -14910249.017 10 0 60589 45000.00000 0 -10179770.759 19916425.172 -12292201.092 10 0 60589 45900.00000 0 -10898600.392 21063630.827 -9435770.146 10 0 60589 46800.00000 0 -11317936.525 21967320.555 -6396383.725 10 0 60589 47700.00000 0 -11466840.437 22576445.079 -3232992.597 10 0 60589 48600.00000 0 -11384577.738 22848888.136 -6931.367 10 0 60589 49500.00000 0 -11118727.008 22753315.978 3219265.794 10 0 60589 50400.00000 0 -10722949.336 22270593.873 6383071.626 10 0 60589 51300.00000 0 -10254513.138 21394710.208 9423171.398 10 0 60589 52200.00000 0 -9771678.634 20133169.260 12280644.718 10 0 60589 53100.00000 0 -9331052.159 18506835.706 14900101.022 10 0 60589 54000.00000 0 -8985021.567 16549236.710 17230747.270 10 0 60589 54900.00000 0 -8779380.572 14305349.745 19227367.700 10 0 60589 55800.00000 0 -8751241.897 11829925.613 20851197.191 10 0 60589 56700.00000 0 -8927327.137 9185415.235 22070671.802 10 0 60589 57600.00000 0 -9322705.572 6439585.060 22862042.347 10 0 60589 58500.00000 0 -9940035.607 3662918.872 23209839.245 10 0 60589 59400.00000 0 -10769341.680 925912.588 23107179.629 10 0 60589 60300.00000 0 -11788337.319 -1703626.812 22555910.376 10 0 60589 61200.00000 0 -12963282.277 -4163167.011 21566583.672 10 0 60589 62100.00000 0 -14250339.386 -6397814.028 20158264.678 10 0 60589 63000.00000 0 -15597375.714 -8362356.057 18358173.966 10 0 60589 63900.00000 0 -16946133.731 -10022902.592 16201170.474 10 0 60589 64800.00000 0 -18234682.235 -11358050.583 13729083.901 10 0 60589 65700.00000 0 -19400044.542 -12359528.898 10989908.480 10 0 60589 66600.00000 0 -20380893.342 -13032294.135 8036873.146 10 0 60589 67500.00000 0 -21120198.240 -13394073.887 4927405.791 10 0 60589 68400.00000 0 -21567713.482 -13474377.063 1722011.829 10 0 60589 69300.00000 0 -21682199.683 -13313013.511 -1516910.601 10 0 60589 70200.00000 0 -21433284.376 -12958186.378 -4726294.872 10 0 60589 71100.00000 0 -20802881.427 -12464238.937 -7843644.630 10 0 60589 72000.00000 0 -19786108.105 -11889152.549 -10808261.606 10 0 60589 72900.00000 0 -18391660.058 -11291903.096 -13562437.366 10 0 60589 73800.00000 0 -16641627.654 -10729789.190 -16052584.652 10 0 60589 74700.00000 0 -14570760.987 -10255846.483 -18230285.424 10 0 60589 75600.00000 0 -12225214.345 -9916458.458 -20053234.707 10 0 60589 76500.00000 0 -9660822.887 -9749265.317 -21486061.778 10 0 60589 77400.00000 0 -6940983.944 -9781459.607 -22501012.974 10 0 60589 78300.00000 0 -4134231.711 -10028540.363 -23078483.452 10 0 60589 79200.00000 0 -1311606.615 -10493577.969 -23207388.371 10 0 60589 80100.00000 0 1456071.174 -11167020.075 -22885367.280 10 0 60589 81000.00000 0 4100911.024 -12027046.092 -22118818.679 10 0 60589 81900.00000 0 6560532.100 -13040454.681 -20922765.027 10 0 60589 82800.00000 0 8780408.384 -14164046.348 -19320551.534 10 0 60589 83700.00000 0 10715882.466 -15346442.673 -17343385.185 10 0 60589 84600.00000 0 12333766.004 -16530265.498 -15029723.279 10 0 60589 85500.00000 0 13613462.106 -17654584.529 -12424523.525 10 0 60590 0.00000 0 14547564.710 -18657530.575 -9578370.535 10 0 60590 900.00000 0 15141912.331 -19478965.420 -6546493.949 10 0 60590 1800.00000 0 15415094.508 -20063095.140 -3387700.953 10 0 60590 2700.00000 0 15397434.914 -20360919.197 -163238.542 10 0 60590 3600.00000 0 15129493.689 -20332411.274 3064388.921 10 0 60590 4500.00000 0 14660153.470 -19948340.957 6232625.666 10 0 60590 5400.00000 0 14044370.044 -19191659.634 9280070.745 10 0 60590 6300.00000 0 13340682.573 -18058392.212 12147661.519 10 0 60590 7200.00000 0 12608588.176 -16557996.746 14779811.891 10 0 60590 8100.00000 0 11905891.161 -14713176.156 17125483.737 10 0 60590 9000.00000 0 11286138.153 -12559148.836 19139171.334 10 0 60590 9900.00000 0 10796246.688 -10142407.357 20781780.220 10 0 60590 10800.00000 0 10474426.757 -7519015.520 22021383.986 10 0 60590 11700.00000 0 10348482.597 -4752513.075 22833844.711 10 0 60590 12600.00000 0 10434566.274 -1911513.632 23203285.196 10 0 60590 13500.00000 0 10736435.925 932906.011 23122403.820 10 0 60590 14400.00000 0 11245250.597 3709918.151 22592625.565 10 0 60590 15300.00000 0 11939911.366 6351646.634 21624085.672 10 0 60590 16200.00000 0 12787935.666 8795748.175 20235445.357 10 0 60590 17100.00000 0 13746829.362 10987765.899 18453542.093 10 0 60590 18000.00000 0 14765900.131 12883157.464 16312880.069 10 0 60590 18900.00000 0 15788436.790 14448913.381 13854969.579 10 0 60590 19800.00000 0 16754163.476 15664697.885 11127527.175 10 0 60590 20700.00000 0 17601865.374 16523464.534 8183551.406 10 0 60590 21600.00000 0 18272074.970 17031520.667 5080291.773 10 0 60590 22500.00000 0 18709704.648 17208038.167 1878130.965 10 0 60590 23400.00000 0 18866513.294 17084031.435 -1360597.347 10 0 60590 24300.00000 0 18703301.278 16700846.367 -4572831.337 10 0 60590 25200.00000 0 18191739.537 16108225.023 -7696019.565 10 0 60590 26100.00000 0 17315753.993 15362028.981 -10669349.827 10 0 60590 27000.00000 0 16072405.534 14521718.925 -13434943.144 10 0 60590 27900.00000 0 14472227.361 13647698.427 -15938988.511 10 0 60590 28800.00000 0 12539004.720 12798635.499 -18132795.462 10 0 60590 29700.00000 0 10309005.851 12028876.107 -19973743.415 10 0 60590 30600.00000 0 7829696.195 11386059.609 -21426109.233 10 0 60590 31500.00000 0 5157989.774 10909037.053 -22461757.113 10 0 60590 32400.00000 0 2358110.898 10626179.987 -23060677.962 10 0 60590 33300.00000 0 -500844.497 10554150.578 -23211368.611 10 0 60590 34200.00000 0 -3347546.334 10697184.037 -22911044.413 10 0 60590 35100.00000 0 -6111157.237 11046912.585 -22165682.098 10 0 60590 36000.00000 0 -8724035.954 11582737.336 -20989892.957 10 0 60590 36900.00000 0 -11124305.849 12272731.482 -19406629.568 10 0 60590 37800.00000 0 -13258182.915 13075035.964 -17446732.368 10 0 60590 38700.00000 0 -15081967.956 13939688.313 -15148325.190 10 0 60590 39600.00000 0 -16563621.649 14810807.342 -12556071.718 10 0 60590 40500.00000 0 -17683858.642 15629041.622 -9720307.280 10 0 60590 41400.00000 0 -18436716.818 16334178.734 -6696062.702 10 0 60590 42300.00000 0 -18829579.641 16867805.637 -3541999.002 10 0 60590 43200.00000 0 -18882652.201 17175908.396 -319273.345 10 0 60590 44100.00000 0 -18627914.244 17211302.081 2909642.041 10 0 60590 45000.00000 0 -18107595.118 16935788.704 6082165.325 10 0 60590 45900.00000 0 -17372235.399 16321952.441 9136811.877 10 0 60590 46800.00000 0 -16478417.021 15354516.457 12014379.438 10 0 60590 47700.00000 0 -15486257.402 14031203.896 14659089.047 10 0 60590 48600.00000 0 -14456772.736 12363066.160 17019660.162 10 0 60590 49500.00000 0 -13449220.905 10374263.662 19050299.688 10 0 60590 50400.00000 0 -12518535.198 8101306.897 20711586.275 10 0 60590 51300.00000 0 -11712956.167 5591787.907 21971233.277 10 0 60590 52200.00000 0 -11071960.653 2902653.275 22804715.983 10 0 60590 53100.00000 0 -10624574.743 98088.693 23195751.178 10 0 60590 54000.00000 0 -10388141.467 -2752898.712 23136619.686 10 0 60590 54900.00000 0 -10367595.287 -5579101.572 22628325.355 10 0 60590 55800.00000 0 -10555274.432 -8309829.507 21680586.764 10 0 60590 56700.00000 0 -10931279.736 -10877610.695 20311660.979 10 0 60590 57600.00000 0 -11464365.872 -13220766.309 18548001.666 10 0 60590 58500.00000 0 -12113328.448 -15285751.121 16423757.072 10 0 60590 59400.00000 0 -12828829.410 -17029162.927 13980116.446 10 0 60590 60300.00000 0 -13555584.434 -18419336.836 11264516.598 10 0 60590 61200.00000 0 -14234820.257 -19437457.513 8329723.295 10 0 60590 62100.00000 0 -14806898.020 -20078142.523 5232804.953 10 0 60590 63000.00000 0 -15213991.123 -20349472.167 2034018.625 10 0 60590 63900.00000 0 -15402703.329 -20272464.601 -1204369.582 10 0 60590 64800.00000 0 -15326515.018 -19880018.686 -4419305.869 10 0 60590 65700.00000 0 -14947952.581 -19215369.830 -7548187.043 10 0 60590 66600.00000 0 -14240387.600 -18330124.915 -10530090.349 10 0 60590 67500.00000 0 -13189388.293 -17281960.488 -13306969.623 10 0 60590 68400.00000 0 -11793564.831 -16132082.680 -15824793.387 10 0 60590 69300.00000 0 -10064871.862 -14942557.384 -18034601.805 10 0 60590 70200.00000 0 -8028354.769 -13773624.437 -19893461.415 10 0 60590 71100.00000 0 -5721349.831 -12681109.866 -21365298.947 10 0 60590 72000.00000 0 -3192171.615 -11714045.672 -22421598.179 10 0 60590 72900.00000 0 -498342.426 -10912597.304 -23041946.888 10 0 60590 73800.00000 0 2295562.309 -10306385.577 -23214424.042 10 0 60590 74700.00000 0 5120362.927 -9913272.709 -22935820.655 10 0 60590 75600.00000 0 7904916.986 -9738662.382 -22211690.976 10 0 60590 76500.00000 0 10578843.837 -9775341.899 -21056233.919 10 0 60590 77400.00000 0 13075219.689 -10003871.719 -19492007.798 10 0 60590 78300.00000 0 15333132.065 -10393504.729 -17549484.477 10 0 60590 79200.00000 0 17299988.623 -10903595.497 -15266451.960 10 0 60590 80100.00000 0 18933485.575 -11485439.375 -12687277.217 10 0 60590 81000.00000 0 20203155.266 -12084463.454 -9862043.578 10 0 60590 81900.00000 0 21091429.917 -12642676.801 -6845579.309 10 0 60590 82800.00000 0 21594178.660 -13101276.631 -3696396.094 10 0 60590 83700.00000 0 21720696.864 -13403300.668 -475557.760 10 0 60590 84600.00000 0 21493149.456 -13496214.017 2754499.090 10 0 60590 85500.00000 0 20945492.594 -13334321.690 5931169.908 10 0 60591 0.00000 0 20121919.745 -12880905.236 8992889.221 10 0 60591 900.00000 0 19074897.328 -12109993.111 11880318.447 10 0 60591 1800.00000 0 17862873.672 -11007690.629 14537487.817 10 0 60591 2700.00000 0 16547755.832 -9573012.174 16912876.244 10 0 60591 3600.00000 0 15192260.838 -7818180.290 18960404.672 10 0 60591 4500.00000 0 13857251.575 -5768377.672 20640325.809 10 0 60591 5400.00000 0 12599168.474 -3460960.826 21919993.274 10 0 60591 6300.00000 0 11467664.071 -944166.407 22774495.663 10 0 60591 7200.00000 0 10503539.093 1724637.787 23187143.439 10 0 60591 8100.00000 0 9737066.222 4481086.343 23149799.210 10 0 60591 9000.00000 0 9186771.690 7256247.478 22663044.695 10 0 60591 9900.00000 0 8858725.929 9979252.564 21736180.534 10 0 60591 10800.00000 0 8746373.424 12580016.045 20387058.105 10 0 60591 11700.00000 0 8830909.433 14991933.669 18641745.530 10 0 60591 12600.00000 0 9082188.407 17154447.294 16534033.210 10 0 60591 13500.00000 0 9460126.460 19015369.663 14104787.312 10 0 60591 14400.00000 0 9916539.267 20532872.006 11401162.765 10 0 60591 15300.00000 0 10397338.044 21677051.030 8475690.313 10 0 60591 16200.00000 0 10844990.701 22431009.241 5385254.984 10 0 60591 17100.00000 0 11201143.571 22791402.860 2189985.828 10 0 60591 18000.00000 0 11409291.847 22768434.027 -1047920.988 10 0 60591 18900.00000 0 11417384.409 22385287.657 -4265422.035 10 0 60591 19800.00000 0 11180251.275 21677036.945 -7399864.629 10 0 60591 20700.00000 0 10661749.294 20689064.346 -10390217.570 10 0 60591 21600.00000 0 9836533.721 19475065.534 -13178269.441 10 0 60591 22500.00000 0 8691379.336 18094721.651 -15709770.010 10 0 60591 23400.00000 0 7225994.106 16611139.184 -17935491.581 10 0 60591 24300.00000 0 5453290.138 15088166.445 -19812189.135 10 0 60591 25200.00000 0 3399099.815 13587700.534 -21303440.400 10 0 60591 26100.00000 0 1101348.617 12167098.615 -22380349.703 10 0 60591 27000.00000 0 -1391280.972 10876802.402 -23022102.465 10 0 60591 27900.00000 0 -4021138.766 9758275.260 -23216360.362 10 0 60591 28800.00000 0 -6723774.799 8842337.711 -22959490.366 10 0 60591 29700.00000 0 -9430395.680 8147969.937 -22256624.219 10 0 60591 30600.00000 0 -12070507.460 7681630.074 -21121548.061 10 0 60591 31500.00000 0 -14574635.515 7437115.234 -19576425.146 10 0 60591 32400.00000 0 -16877009.012 7395969.481 -17651357.594 10 0 60591 33300.00000 0 -18918099.223 7528420.065 -15383796.082 10 0 60591 34200.00000 0 -20646907.088 7794801.240 -12817809.109 10 0 60591 35100.00000 0 -22022905.948 8147404.740 -10003226.061 10 0 60591 36000.00000 0 -23017559.808 8532678.239 -6994670.593 10 0 60591 36900.00000 0 -23615354.965 8893678.710 -3850502.932 10 0 60591 37800.00000 0 -23814303.223 9172677.039 -631691.395 10 0 60591 38700.00000 0 -23625896.707 9313804.013 2599365.258 10 0 60591 39600.00000 0 -23074517.139 9265626.132 5780042.038 10 0 60591 40500.00000 0 -22196325.006 8983542.655 8848695.499 10 0 60591 41400.00000 0 -21037675.617 8431902.850 11745852.031 10 0 60591 42300.00000 0 -19653128.596 7585753.983 14415354.030 10 0 60591 43200.00000 0 -18103134.124 6432146.098 16805442.267 10 0 60591 44100.00000 0 -16451492.487 4970937.890 18869754.018 10 0 60591 45000.00000 0 -14762692.795 3215068.787 20568218.169 10 0 60591 45900.00000 0 -13099241.576 1190284.322 21867830.475 10 0 60591 46800.00000 0 -11519092.271 -1065675.485 22743294.394 10 0 60591 47700.00000 0 -10073282.474 -3504392.810 23177515.261 10 0 60591 48600.00000 0 -8803877.115 -6068540.984 23161938.283 10 0 60591 49500.00000 0 -7742303.224 -8694034.087 22696723.459 10 0 60591 50400.00000 0 -6908145.720 -11312469.611 21790753.501 10 0 60591 51300.00000 0 -6308454.700 -13853764.114 20461473.713 10 0 60591 52200.00000 0 -5937593.399 -16248873.455 18734565.901 10 0 60591 53100.00000 0 -5777633.566 -18432485.045 16643461.470 10 0 60591 54000.00000 0 -5799281.949 -20345570.253 14228702.016 10 0 60591 54900.00000 0 -5963299.159 -21937690.343 11537158.785 10 0 60591 55800.00000 0 -6222351.200 -23168959.137 8621125.434 10 0 60591 56700.00000 0 -6523215.293 -24011579.601 5537301.316 10 0 60591 57600.00000 0 -6809246.234 -24450889.267 2345685.017 10 0 60591 58500.00000 0 -7022998.053 -24485869.952 -891599.840 10 0 60591 59400.00000 0 -7108888.766 -24129099.971 -4111522.943 10 0 60591 60300.00000 0 -7015793.899 -23406150.784 -7251384.964 10 0 60591 61200.00000 0 -6699457.323 -22354453.740 -10250049.215 10 0 60591 62100.00000 0 -6124615.731 -21021685.294 -13049142.041 10 0 60591 63000.00000 0 -5266745.320 -19463739.580 -15594197.448 10 0 60591 63900.00000 0 -4113355.547 -17742374.782 -17835722.786 10 0 60591 64800.00000 0 -2664774.268 -15922633.376 -19730164.158 10 0 60591 65700.00000 0 -934390.342 -14070145.611 -21240752.652 10 0 60591 66600.00000 0 1051657.047 -12248430.166 -22338215.071 10 0 60591 67500.00000 0 3255329.690 -10516305.446 -23001335.919 10 0 60591 68400.00000 0 5628046.856 -8925519.841 -23217360.465 10 0 60591 69300.00000 0 8112490.415 -7518699.546 -22982231.997 10 0 60591 70200.00000 0 10644783.394 -6327698.725 -22300659.581 10 0 60591 71100.00000 0 13156951.394 -5372419.581 -21186015.945 10 0 60591 72000.00000 0 15579564.637 -4660150.012 -19660068.193 10 0 60591 72900.00000 0 17844451.156 -4185444.717 -17752547.202 10 0 60591 73800.00000 0 19887368.819 -3930552.869 -15500564.400 10 0 60591 74700.00000 0 21650525.684 -3866372.695 -12947887.490 10 0 60591 75600.00000 0 23084844.613 -3953891.351 -10144089.202 10 0 60591 76500.00000 0 24151878.706 -4146048.347 -7143585.504 10 0 60591 77400.00000 0 24825298.635 -4389943.181 -4004581.801 10 0 60591 78300.00000 0 25091890.769 -4629293.588 -787947.345 10 0 60591 79200.00000 0 24952025.278 -4807040.447 2443960.569 10 0 60591 80100.00000 0 24419575.411 -4867989.341 5628500.076 10 0 60591 81000.00000 0 23521291.912 -4761377.335 8703952.861 10 0 60591 81900.00000 0 22295659.135 -4443256.703 11610713.906 10 0 60591 82800.00000 0 20791280.830 -3878595.031 14292440.185 10 0 60591 83700.00000 0 19064863.038 -3043002.942 16697136.576 10 0 60591 84600.00000 0 17178878.054 -1924016.204 18778158.493 10 0 60591 85500.00000 0 15199006.573 -521877.446 20495112.348 99